Date,TemperatureHighF,TemperatureAvgF,TemperatureLowF,DewpointHighF,DewpointAvgF,DewpointLowF,HumidityHigh,HumidityAvg,HumidityLow,PressureMaxIn,PressureMinIn,WindSpeedMaxMPH,WindSpeedAvgMPH,GustSpeedMaxMPH,PrecipitationSumIn
2013-3-1,32.8,30.9,29.7,30.0,28.8,28.0,96,92,87,30.12,30.02,5,1,9,0.02
2013-3-2,29.4,27.4,25.3,27.0,22.8,20.0,92,83,72,30.17,30.10,4,1,14,0.01
2013-3-3,34.9,27.5,22.5,24.0,19.2,17.0,91,72,49,30.19,30.12,7,2,11,0.01
2013-3-4,38.0,31.5,22.9,26.0,20.6,17.0,79,65,48,30.19,30.01,7,2,9,0.00
2013-3-5,36.6,33.6,27.5,35.0,29.9,26.0,96,87,67,30.00,29.69,10,3,14,0.16
2013-3-6,30.6,28.2,26.2,30.0,27.3,25.0,96,96,96,30.35,29.80,5,1,9,0.00
2013-3-7,34.5,29.9,27.1,32.0,26.2,-99.9,96,90,82,30.46,30.34,4,-14,5,0.11
2013-3-8,42.8,34.0,24.7,28.0,25.7,23.0,94,73,51,30.54,30.41,5,1,8,0.06
2013-3-9,56.3,44.5,31.2,33.0,29.5,25.0,81,58,39,30.40,30.02,6,2,11,0.00
2013-3-10,67.1,58.8,52.4,41.0,35.8,32.0,52,43,30,30.02,29.77,14,3,17,0.02
2013-3-11,59.7,46.4,33.4,50.0,41.0,30.0,95,82,51,29.92,29.63,10,3,19,0.20
2013-3-12,45.4,36.0,31.2,31.0,27.0,23.0,93,71,45,30.11,29.92,10,3,14,0.00
2013-3-13,31.7,27.8,23.9,29.0,21.7,18.0,92,78,68,30.41,30.09,6,2,13,0.00
2013-3-14,44.8,30.9,18.6,30.0,21.0,15.0,93,70,32,30.43,30.25,7,1,8,0.01
2013-3-15,51.9,40.3,27.4,40.0,33.3,26.0,95,78,58,30.23,29.78,3,1,6,0.00
2013-3-16,55.9,46.3,35.8,50.0,40.3,31.0,87,80,70,30.07,29.65,5,1,12,0.03
2013-3-17,36.2,33.8,31.3,31.0,28.9,27.0,93,82,76,30.17,30.00,5,2,8,0.05
2013-3-18,43.4,36.9,32.3,42.0,35.5,31.0,97,94,89,29.99,29.66,6,2,16,0.90
2013-3-19,42.6,34.1,25.0,35.0,20.1,15.0,91,59,33,30.19,29.90,11,4,21,0.00
2013-3-20,34.0,28.8,24.1,20.0,14.6,8.0,74,56,42,30.18,30.07,8,2,17,0.00
2013-3-21,35.0,24.2,17.3,15.0,11.9,8.0,79,61,38,30.13,30.04,5,1,7,0.00
2013-3-22,47.2,32.7,21.7,17.0,12.8,11.0,70,47,24,30.14,30.04,6,1,8,0.00
2013-3-23,49.0,43.3,36.8,26.0,23.0,21.0,58,45,35,30.35,30.18,4,1,8,0.02
2013-3-24,37.6,33.4,28.3,32.0,28.2,23.0,95,82,58,30.19,29.73,12,3,13,0.00
2013-3-25,34.5,31.0,28.0,31.0,28.3,26.0,94,89,78,30.31,29.79,6,1,14,0.03
2013-3-26,41.6,34.4,29.7,30.0,26.7,22.0,92,75,50,30.57,30.31,9,1,11,0.37
2013-3-27,44.7,34.4,24.3,30.0,24.6,20.0,95,70,45,30.64,30.57,7,1,10,0.00
2013-3-28,51.1,36.4,22.8,30.0,24.9,21.0,92,67,39,30.68,30.59,6,1,9,0.00
2013-3-29,56.9,41.1,27.1,34.0,28.7,24.0,91,66,35,30.62,30.49,5,0,6,0.00
2013-3-30,60.6,46.2,29.4,37.0,32.8,27.0,93,64,35,30.52,30.20,4,1,6,0.00
2013-3-31,62.5,50.0,43.6,45.0,41.0,35.0,91,73,42,30.20,30.03,8,1,13,0.07